Flag for Micronesia Weather past 2 weeks in Tofol, Kosrae, Micronesia

Now
85 °F

Partly sunny.


Feels Like: 95 °F
Forecast: 82 / 87 °F
Wind: 3 mph from Southeast

Location: Pohnpei

Current Time: Apr 19, 2015 at 2:47:26 PM

Latest Report: Apr 19, 2015 at 1:50 PM


Visibility: 15 mi

Pressure: 29.78 "Hg

Humidity: 77%

Dew point: 77 °F

Location of TofolLocation

Historic Weather in Tofol — Graph

°F

Tofol temperature yesterday

Maximum temperature yesterday: 87 °F (at 9:50 AM)
Minimum temperature yesterday: 77 °F (at 5:51 AM)
Average temperature yesterday: 82 °F

Past Weeks' High & Low Weather Summary

 TemperatureHumidityPressure
High89 °F (Apr 4, 12:58 PM)98% (Apr 6, 9:52 PM)29.98 "Hg (Apr 6, 9:52 PM)
Low73 °F (Apr 8, 1:50 AM)61% (Apr 8, 10:54 AM)29.68 "Hg (Apr 5, 3:54 PM)
Average81 °F84%29.84 "Hg
* Reported Apr 4 12:58 PM — Apr 19 12:55 PM, Tofol, Weather by CustomWeather, © 2015

Note: Actual official high and low records may vary slightly from our data, if they occured in-between our weather recording intervals... More about our weather records

Advertising

Tofol weather history for previous 24 hours

 ConditionsComfort  
Time TempWeatherWind HumidityBarometerVisibility
12:55 PM
Sun, Apr 19
87 °FBroken clouds.9 mph76%29.81 "Hg15 mi
11:50 AM88 °FBroken clouds.6 mph73%29.83 "Hg15 mi
10:50 AM86 °FBroken clouds.7 mph77%29.84 "Hg15 mi
9:50 AM87 °FPartly sunny.7 mph75%29.85 "Hg15 mi
8:50 AM84 °FPartly sunny.3 mph83%29.85 "Hg15 mi
7:51 AM80 °FPartly sunny.3 mph92%29.84 "Hg15 mi
6:55 AM77 °FSprinkles. Mostly cloudy.5 mph96%29.82 "Hg14 mi
5:53 AM77 °FMostly cloudy.3 mph95%29.80 "Hg15 mi
4:53 AM77 °FMostly cloudy.5 mph95%29.79 "Hg15 mi
3:50 AM76 °FMostly cloudy.3 mph96%29.78 "Hg15 mi
2:52 AM78 °FSprinkles. Mostly cloudy.3 mph96%29.80 "Hg15 mi
1:52 AM78 °FMostly cloudy.3 mph94%29.80 "Hg15 mi
12:55 AM79 °FMostly cloudy.3 mph94%29.83 "Hg15 mi
11:55 PM
Sat, Apr 18
80 °FMostly cloudy.3 mph92%29.85 "Hg15 mi
10:52 PM80 °FMostly cloudy.3 mph92%29.85 "Hg15 mi
8:52 PM80 °FMostly cloudy.3 mph89%29.84 "Hg15 mi
7:53 PM80 °FMostly cloudy.3 mph91%29.82 "Hg15 mi
6:52 PM82 °FMostly cloudy.5 mph84%29.80 "Hg15 mi
5:53 PM84 °FMore clouds than sun.5 mph79%29.78 "Hg15 mi
4:54 PM85 °FMore clouds than sun.3 mph77%29.77 "Hg15 mi
3:53 PM85 °FMore clouds than sun.3 mph80%29.77 "Hg15 mi
2:52 PM84 °FMore clouds than sun.3 mph84%29.78 "Hg15 mi
Weather by CustomWeather, © 2015

See weather overviewHow to use our weather pages